User: anonymous
Location: Copper Breaks State Park
(34.1132°N, 99.7492°W)
Time: 02:19:53
(UTC-05:00)
Language:

SL-16 R/B - Orbit

View from above orbital plane
View from above orbital plane
View from above satellite
View from above satellite

Ground track
Ground track

The orbit data is extracted from the following two-line orbital elements,

1 27006U 01056F   14202.49946652 -.00000084  00000-0 -47539-4 0  1843
2 27006 099.1695 008.8370 0014616 198.9304 195.0733 13.70915615631022
Epoch (UTC): 21 July 2014 11:59:13
Eccentricity: 0.0014616
inclination: 99.1695°
perigee height: 985 km
apogee height: 1007 km
right ascension of ascending node: 8.8370°
argument of perigee: 198.9304°
revolutions per day: 13.70915615
mean anomaly at epoch: 195.0733°
orbit number at epoch: 63102

The dashed part of the orbit path shows where the satellite is in the earth's shadow,  

DLR